[[{"header":{"parameterUnit":"m.s-1","parameterCategory":1,"la1":30.2991,"la2":30.254,"lo1":-89.0895,"lo2":-89.0444,"dy":0.0017,"dx":0.0017,"nx":28,"ny":28,"refTime":"2023-11-17T09:00:00:Z","depth":0,"parameterNumber":2,"parameterNumberName":"U-component_of_WINDS"},"data":[0,0,0,0,0,0,0,0,0,0,0,0,0,0,0,0,0,0,0,0,0,0,0,0,0,0,0,0,0,0,0,0,0,0,0,0,0,0,0,0,0,0,0,0,0,0,0,0,0,0,0,0,0,0,0,0,0,0,0.7914,0.7915,0,0.798,0.7981,0.7982,0.7995,0.7995,0.7994,0.7994,0.8065,0.8068,0.807,0,0,0,0,0,0,0,0,0,0,0,0,0,0.7805,0.7807,0.7914,0.7915,0.7916,0.798,0.7981,0.7982,0.7996,0.7995,0.7994,0.7994,0.8065,0.8067,0.807,0,0,0,0,0,0,0,0,0,0,0,0,0,0.786,0.7807,0.7914,0.793,0.7932,0.798,0.7981,0.7982,0.7996,0.7995,0.7994,0.7993,0.8064,0.8067,0.8071,0.8108,0,0,0.8082,0.8083,0,0,0,0,0,0,0,0,0.7857,0.7864,0.7927,0.7929,0.7932,0.7979,0.7969,0.8025,0.7996,0.7972,0.7994,0.7993,0.8037,0.8043,0.8057,0.8111,0.8115,0.8082,0.8084,0.8086,0.8087,0,0,0,0,0,0,0,0.7853,0.7861,0.794,0.7928,0.7931,0.7936,0.7943,0.7979,0.8008,0.7974,0.7975,0.7982,0.8039,0.8054,0.8059,0.8116,0.8082,0.8085,0.8087,0.8089,0.8207,0.8208,0,0,0,0,0,0,0.7845,0.7858,0.7938,0.7942,0.7891,0.7938,0.7946,0.7964,0.8008,0.8014,0.7983,0.7983,0.8048,0.8055,0.8062,0.811,0.8086,0.8089,0.8091,0.8206,0.8207,0.8208,0,0,0,0,0,0,0.7843,0.7853,0.7936,0.79,0.7911,0.7941,0.7961,0.7966,0.7981,0.8015,0.802,0.7993,0.8048,0.8057,0.8097,0.8113,0.8091,0.8094,0.8205,0.8207,0.8208,0.8207,0,0,0,0,0,0,0.784,0.7852,0.7865,0.7901,0.7913,0.7968,0.7962,0.7968,0.7987,0.7987,0.8026,0.8031,0.8048,0.8092,0.81,0.8118,0.8097,0.8204,0.8206,0.8207,0.8205,0.8208,0.821,0,0,0,0,0,0.7836,0.7862,0.7865,0.7875,0.793,0.7969,0.7976,0.7994,0.7988,0.8003,0.8025,0.803,0.811,0.8096,0.8106,0.8124,0.8203,0.8205,0.8207,0.8204,0.8207,0.821,0,0,0,0,0,0,0.7828,0.7867,0.7871,0.7909,0.7935,0.7971,0.7989,0.7996,0.8026,0.8025,0.8047,0.8055,0.8095,0.8114,0.8097,0.8164,0.8156,0.8161,0.8151,0.8154,0.8156,0.8151,0.81,0,0,0,0,0,0.783,0.7857,0.789,0.7921,0.7934,0.7959,0.7977,0.7988,0.8017,0.8029,0.8053,0.8083,0.8115,0.8135,0.8166,0.8208,0.8218,0.8226,0.8228,0.823,0.8234,0.8261,0.8265,0.8216,0.8216,0.8216,0,0,0.7836,0.786,0.7876,0.792,0.7941,0.7971,0.7969,0.7999,0.8022,0.8034,0.8073,0.8093,0.8127,0.8169,0.8189,0.8186,0.825,0.8233,0.8234,0.8237,0.8264,0.8268,0.8272,0.8217,0.8217,0.8217,0,0,0.7861,0.7881,0.791,0.7932,0.7965,0.7983,0.799,0.8025,0.8038,0.8078,0.8088,0.8117,0.817,0.8195,0.8215,0.8252,0.8259,0.8262,0.8274,0.83,0.8304,0.8307,0.8323,0.8328,0.8265,0.8265,0.8265,0,0.7864,0.7907,0.7924,0.7955,0.7975,0.7987,0.8017,0.8038,0.808,0.8095,0.8091,0.816,0.8184,0.8233,0.8242,0.8257,0.8268,0.8257,0.8301,0.8305,0.8309,0.8324,0.833,0.8265,0.8265,0.8265,0.8265,0,0.791,0.794,0.796,0.8,0.8022,0.8052,0.8076,0.8097,0.8107,0.8126,0.8168,0.8197,0.8235,0.8248,0.8258,0.8299,0.8297,0.8297,0.8289,0.8314,0.8328,0.8334,0.8266,0.8266,0.8266,0.8265,0,0,0.7931,0.7981,0.7988,0.8008,0.8046,0.8071,0.8103,0.814,0.8158,0.8187,0.8217,0.8263,0.8264,0.8286,0.83,0.8322,0.8353,0.832,0.8321,0.8326,0.8403,0.8404,0.841,0.8357,0.8359,0.8359,0.8401,0,0.7963,0.8019,0.8037,0.8085,0.8114,0.8127,0.8156,0.8184,0.8202,0.8232,0.8253,0.8286,0.8283,0.8298,0.832,0.8344,0.8369,0.8341,0.8387,0.8389,0.8379,0.8418,0.8418,0.8456,0.8407,0.8408,0.8408,0,0.8006,0.8036,0.8087,0.8124,0.8137,0.8162,0.8198,0.8225,0.8259,0.8271,0.8297,0.8309,0.8346,0.8336,0.8388,0.8369,0.839,0.8405,0.8407,0.8412,0.8401,0.8426,0.8468,0.8474,0.8417,0.8417,0.8416,0,0.8019,0.8072,0.811,0.8125,0.8169,0.8187,0.8206,0.8238,0.826,0.8293,0.8308,0.8344,0.8365,0.8394,0.8417,0.8407,0.8468,0.8459,0.8482,0.8481,0.8494,0.8493,0.8542,0.8505,0.8505,0.8505,0.8505,0,0.8053,0.8084,0.8116,0.8139,0.8176,0.8197,0.8233,0.8253,0.8282,0.8312,0.8325,0.8353,0.838,0.8412,0.8431,0.8473,0.8482,0.8494,0.8499,0.8494,0.8493,0.8508,0.8507,0.8506,0.8506,0.8506,0.8505,0,0.8073,0.8095,0.8138,0.8176,0.8187,0.8212,0.8246,0.827,0.829,0.8327,0.8337,0.8369,0.8408,0.8433,0.8482,0.8495,0.8542,0.8545,0.853,0.8533,0.8554,0.8552,0.8615,0.8626,0.858,0.8581,0.8581,0,0.8093,0.8118,0.8159,0.8179,0.8198,0.823,0.8253,0.8275,0.8299,0.834,0.836,0.8399,0.8432,0.8494,0.8523,0.8561,0.8567,0.8586,0.8573,0.8568,0.857,0.8568,0.8572,0.8589,0.8589,0.8589,0.859,0,0.8128,0.8139,0.817,0.8206,0.8232,0.8262,0.8291,0.8308,0.8336,0.8362,0.8401,0.8427,0.8478,0.8518,0.8559,0.8582,0.8592,0.8594,0.8601,0.8597,0.8588,0.8595,0.8538,0.8592,0.8592,0.8592,0.8592,0.8591,0.8151,0.8174,0.8207,0.8242,0.8267,0.8295,0.832,0.8344,0.8376,0.8419,0.8431,0.8473,0.8508,0.8565,0.8588,0.8623,0.8621,0.8631,0.8634,0.8637,0.8638,0.8581,0.863,0.863,0.863,0.863,0.863,0,0.8188,0.821,0.8242,0.8283,0.8312,0.8317,0.8351,0.8375,0.8411,0.8443,0.8475,0.8522,0.8561,0.8594,0.8635,0.8657,0.8663,0.8667,0.8666,0.8672,0.8636,0.8627,0.8662,0.8662,0.8662,0.8662,0.8662,0.8662,0.821,0.8251,0.8266,0.8319,0.8342,0.8382,0.8401,0.8429,0.8454,0.8505,0.8538,0.8558,0.8591,0.8636,0.8673,0.8682,0.8697,0.8701,0.8711,0.8678,0.8674,0.8671,0.8662,0.8704,0.8704,0.8744,0.8745,0.8745]},{"header":{"parameterUnit":"m.s-1","parameterCategory":1,"la1":30.2991,"la2":30.254,"lo1":-89.0895,"lo2":-89.0444,"dy":0.0017,"dx":0.0017,"nx":28,"ny":28,"refTime":"2023-11-17T09:00:00:Z","depth":0,"parameterNumber":3,"parameterNumberName":"V-component_of_WINDS"},"data":[0,0,0,0,0,0,0,0,0,0,0,0,0,0,0,0,0,0,0,0,0,0,0,0,0,0,0,0,0,0,0,0,0,0,0,0,0,0,0,0,0,0,0,0,0,0,0,0,0,0,0,0,0,0,0,0,0,0,-3.0042,-3.0043,0,-3.0071,-3.0072,-3.0072,-3.0108,-3.0109,-3.0109,-3.011,-3.0136,-3.0137,-3.0137,0,0,0,0,0,0,0,0,0,0,0,0,0,-3.002,-3.002,-3.0042,-3.0043,-3.0043,-3.0071,-3.0072,-3.0072,-3.0108,-3.0109,-3.011,-3.011,-3.0136,-3.0137,-3.0137,0,0,0,0,0,0,0,0,0,0,0,0,0,-3.0037,-3.002,-3.0042,-3.0065,-3.0067,-3.0071,-3.0072,-3.0072,-3.0108,-3.0109,-3.011,-3.0111,-3.0136,-3.0137,-3.0137,-3.012,0,0,-3.0137,-3.0138,0,0,0,0,0,0,0,0,-3.0036,-3.0038,-3.0061,-3.0063,-3.0066,-3.0087,-3.0073,-3.0088,-3.0108,-3.0092,-3.011,-3.0111,-3.0119,-3.0121,-3.0124,-3.0122,-3.0123,-3.0137,-3.0138,-3.0138,-3.0138,0,0,0,0,0,0,0,-3.0035,-3.0037,-3.0054,-3.0061,-3.0064,-3.0074,-3.0077,-3.0076,-3.01,-3.0094,-3.0096,-3.01,-3.0121,-3.0124,-3.0125,-3.0123,-3.0137,-3.0138,-3.0138,-3.0138,-3.0115,-3.0114,0,0,0,0,0,0,-3.0031,-3.0036,-3.0053,-3.0055,-3.0053,-3.0073,-3.0077,-3.0079,-3.01,-3.0104,-3.0099,-3.0101,-3.0123,-3.0125,-3.0126,-3.0112,-3.0138,-3.0138,-3.0138,-3.0116,-3.0115,-3.0114,0,0,0,0,0,0,-3.003,-3.0032,-3.0052,-3.0046,-3.0049,-3.0073,-3.0075,-3.0079,-3.0083,-3.0104,-3.0109,-3.0098,-3.0124,-3.0126,-3.0123,-3.0113,-3.0138,-3.0138,-3.0117,-3.0116,-3.0115,-3.0081,0,0,0,0,0,0,-3.0029,-3.0031,-3.0024,-3.0046,-3.0049,-3.0047,-3.0074,-3.0079,-3.0083,-3.0087,-3.0104,-3.0108,-3.0125,-3.0123,-3.0123,-3.0114,-3.0138,-3.0118,-3.0116,-3.0115,-3.0083,-3.0079,-3.0075,0,0,0,0,0,-3.0028,-3.0012,-3.0024,-3.0026,-3.0041,-3.0047,-3.0049,-3.0069,-3.0082,-3.0077,-3.0092,-3.0107,-3.0115,-3.0122,-3.0123,-3.0114,-3.0118,-3.0117,-3.0115,-3.0085,-3.008,-3.0076,0,0,0,0,0,0,-2.9986,-3.0015,-3.0028,-3.0018,-3.003,-3.0053,-3.0045,-3.0062,-3.0069,-3.0072,-3.0096,-3.01,-3.0095,-3.0104,-3.0112,-3.0102,-3.0119,-3.0118,-3.0096,-3.0091,-3.0088,-3.0085,-3.0139,0,0,0,0,0,-2.9976,-2.9978,-3.0003,-2.9992,-2.9997,-3.0021,-3.0023,-3.0039,-3.0051,-3.0056,-3.007,-3.0082,-3.0088,-3.009,-3.0096,-3.0086,-3.0092,-3.008,-3.0076,-3.0073,-3.0071,-3.0071,-3.0067,-3.0109,-3.0109,-3.0109,0,0,-2.9954,-2.997,-2.9969,-2.9984,-2.9995,-2.9998,-3.0024,-3.0024,-3.0027,-3.0056,-3.0055,-3.0067,-3.0082,-3.0077,-3.0075,-3.0084,-3.0062,-3.0071,-3.0068,-3.0068,-3.0069,-3.0065,-3.0062,-3.0108,-3.0108,-3.0108,0,0,-2.9916,-2.9927,-2.9922,-2.9934,-2.9951,-2.9968,-2.9967,-2.9989,-2.9998,-2.9999,-3.0022,-3.0026,-3.0033,-3.0045,-3.0051,-3.0025,-3.0042,-3.0027,-3.0006,-3.0006,-3.0002,-3.0,-2.9993,-2.999,-3.0025,-3.0025,-3.0025,0,-2.9886,-2.9891,-2.9916,-2.9917,-2.9924,-2.9954,-2.995,-2.996,-2.9978,-2.9982,-2.9993,-3.0008,-3.0019,-3.0019,-3.0014,-3.0017,-3.0018,-3.0024,-3.0001,-2.9998,-2.9996,-2.999,-2.9987,-3.0023,-3.0023,-3.0023,-3.0024,0,-2.9855,-2.9859,-2.9852,-2.9873,-2.9879,-2.9877,-2.9903,-2.9907,-2.9924,-2.994,-2.9943,-2.9959,-2.9971,-2.9973,-2.9987,-2.9977,-2.9982,-2.9996,-3.0014,-2.999,-2.9985,-2.9983,-3.002,-3.0021,-3.0022,-3.0022,0,0,-2.9787,-2.9826,-2.9823,-2.9835,-2.986,-2.9863,-2.9865,-2.9879,-2.9883,-2.9896,-2.9899,-2.9908,-2.9924,-2.9932,-2.9948,-2.9948,-2.9931,-2.9963,-2.9964,-2.9958,-2.9925,-2.9914,-2.9911,-2.9943,-2.9943,-2.9942,-2.9924,0,-2.9754,-2.9759,-2.9785,-2.9782,-2.9788,-2.982,-2.9822,-2.9838,-2.9855,-2.9863,-2.9881,-2.9889,-2.9907,-2.9913,-2.9914,-2.9933,-2.9925,-2.9934,-2.9947,-2.9947,-2.9943,-2.9908,-2.9895,-2.9877,-2.9922,-2.9922,-2.9921,0,-2.9715,-2.973,-2.9729,-2.976,-2.9763,-2.9764,-2.9782,-2.9789,-2.981,-2.9822,-2.9834,-2.9855,-2.9861,-2.9878,-2.9888,-2.9894,-2.9902,-2.9912,-2.9912,-2.9914,-2.9932,-2.9909,-2.9871,-2.9869,-2.9918,-2.9918,-2.9918,0,-2.9669,-2.9688,-2.9692,-2.97,-2.9735,-2.9736,-2.975,-2.9772,-2.9781,-2.9797,-2.9803,-2.9819,-2.9827,-2.984,-2.9865,-2.9875,-2.9873,-2.9892,-2.9885,-2.9885,-2.9882,-2.9882,-2.9845,-2.9886,-2.9886,-2.9886,-2.9886,0,-2.963,-2.9629,-2.9672,-2.9673,-2.9675,-2.9706,-2.9706,-2.9723,-2.9744,-2.9751,-2.9779,-2.9785,-2.9818,-2.9829,-2.9849,-2.9856,-2.9859,-2.9871,-2.9876,-2.9868,-2.9867,-2.9873,-2.9875,-2.9885,-2.9885,-2.9886,-2.9886,0,-2.9577,-2.9605,-2.9612,-2.9646,-2.9655,-2.9654,-2.9684,-2.9688,-2.9709,-2.9718,-2.9722,-2.9755,-2.9769,-2.9797,-2.9818,-2.9832,-2.9835,-2.9844,-2.9828,-2.9832,-2.9824,-2.9825,-2.979,-2.9788,-2.9829,-2.9829,-2.9828,0,-2.955,-2.9551,-2.9587,-2.9595,-2.9609,-2.962,-2.9631,-2.9663,-2.9673,-2.9701,-2.9702,-2.972,-2.9735,-2.9758,-2.9784,-2.9802,-2.9812,-2.9799,-2.9814,-2.9808,-2.9814,-2.9814,-2.9815,-2.9794,-2.9794,-2.9793,-2.9793,0,-2.9501,-2.9517,-2.9531,-2.9552,-2.9565,-2.9582,-2.9601,-2.9606,-2.9643,-2.9653,-2.967,-2.9683,-2.9708,-2.9725,-2.9748,-2.9764,-2.9785,-2.9789,-2.9788,-2.978,-2.9772,-2.9779,-2.982,-2.9788,-2.9789,-2.9789,-2.9789,-2.979,-2.9461,-2.9465,-2.9493,-2.9509,-2.9528,-2.9547,-2.9554,-2.9578,-2.9593,-2.9617,-2.9635,-2.9652,-2.9678,-2.9711,-2.9727,-2.9741,-2.975,-2.9749,-2.9749,-2.9748,-2.9746,-2.977,-2.9745,-2.9745,-2.9745,-2.9745,-2.9745,0,-2.9415,-2.9436,-2.9451,-2.9479,-2.9493,-2.9515,-2.9539,-2.9549,-2.9564,-2.9587,-2.9603,-2.9625,-2.9644,-2.9674,-2.9696,-2.9702,-2.9713,-2.9707,-2.9707,-2.9711,-2.9735,-2.9734,-2.9698,-2.9698,-2.9698,-2.9698,-2.9698,-2.9698,-2.9393,-2.9402,-2.9422,-2.9442,-2.9463,-2.948,-2.9493,-2.9511,-2.9531,-2.9554,-2.9571,-2.9591,-2.9618,-2.9644,-2.9663,-2.9672,-2.9679,-2.967,-2.9682,-2.9704,-2.9708,-2.9712,-2.9712,-2.9671,-2.9671,-2.9656,-2.9656,-2.9656]}]]